WAT2918 DAAG-DTTA

Flight info

Callsign WAT2918
Flight time 1h 2m
Altitude 35000
Route BJA1C BJA UA411 MORJA UM978 KEMIR UA411 TUC
Aircraft A320/M-SDE3FGHIRWY/LB1

Departure

Time 2026-05-05 15:55
Airport Houari Boumediene Airport (DAAG)

Arrival

Time 2026-05-05 16:57
Airport Tunis Carthage International Airport (DTTA)
Time Latitude Longitude Altitude Speed Heading
2026-05-05 15:47 36.69654 3.21604 70 ft 0 kts 115°
2026-05-05 15:53 36.69646 3.21626 71 ft 12 kts 117°
2026-05-05 15:53 36.69535 3.21705 71 ft 21 kts 152°
2026-05-05 15:54 36.69394 3.21824 71 ft 25 kts 123°
2026-05-05 15:54 36.69414 3.22069 74 ft 8 kts 52°
2026-05-05 15:54 36.69419 3.22077 74 ft 1 kts 52°
2026-05-05 15:54 36.69553 3.22294 76 ft 75 kts 51°
2026-05-05 15:55 36.70041 3.23085 86 ft 150 kts 52°
2026-05-05 15:55 36.70732 3.24201 592 ft 170 kts 49°
2026-05-05 15:55 36.71624 3.25086 1485 ft 167 kts 11°
2026-05-05 15:55 36.72719 3.24886 2310 ft 168 kts 328°
2026-05-05 15:56 36.73522 3.23813 2882 ft 180 kts 289°
2026-05-05 15:56 36.73664 3.22276 3446 ft 189 kts 251°
2026-05-05 15:56 36.73148 3.20715 4094 ft 202 kts 243°
2026-05-05 15:56 36.72556 3.19054 4704 ft 220 kts 244°
2026-05-05 15:57 36.71946 3.17245 5314 ft 238 kts 245°
2026-05-05 15:57 36.71300 3.15264 5933 ft 256 kts 245°
2026-05-05 15:57 36.70629 3.13172 6675 ft 268 kts 245°
2026-05-05 15:57 36.69944 3.11013 7659 ft 270 kts 245°
2026-05-05 15:58 36.69263 3.08881 8650 ft 270 kts 243°
2026-05-05 15:58 36.68244 3.06993 9669 ft 265 kts 221°
2026-05-05 15:58 36.66701 3.05819 10639 ft 266 kts 201°
2026-05-05 15:58 36.64829 3.05460 11205 ft 286 kts 179°
2026-05-05 15:59 36.62844 3.06175 11697 ft 312 kts 154°
2026-05-05 15:59 36.61199 3.08033 12352 ft 333 kts 129°
2026-05-05 15:59 36.60264 3.10738 13098 ft 350 kts 104°
2026-05-05 15:59 36.60249 3.13771 13806 ft 364 kts 80°
2026-05-05 16:00 36.61453 3.17768 14764 ft 374 kts 68°
2026-05-05 16:00 36.62069 3.19786 15260 ft 376 kts 72°
2026-05-05 16:00 36.62763 3.22899 16030 ft 378 kts 79°
2026-05-05 16:00 36.63223 3.26124 16740 ft 381 kts 84°
2026-05-05 16:01 36.63530 3.29384 17409 ft 385 kts 86°
2026-05-05 16:01 36.63760 3.32737 18080 ft 390 kts 88°
2026-05-05 16:01 36.63952 3.36093 18762 ft 394 kts 88°
2026-05-05 16:01 36.64130 3.39492 19409 ft 398 kts 89°
2026-05-05 16:02 36.64308 3.42970 20070 ft 401 kts 89°
2026-05-05 16:02 36.64485 3.46414 20716 ft 405 kts 89°
2026-05-05 16:02 36.64666 3.49940 21373 ft 408 kts 89°
2026-05-05 16:02 36.64844 3.53448 21995 ft 411 kts 89°
2026-05-05 16:03 36.65022 3.56991 22586 ft 414 kts 89°
2026-05-05 16:03 36.65203 3.60588 23211 ft 417 kts 89°
2026-05-05 16:03 36.65379 3.64197 23795 ft 421 kts 89°
2026-05-05 16:03 36.65554 3.67870 24379 ft 424 kts 90°
2026-05-05 16:04 36.65729 3.71498 24919 ft 428 kts 90°
2026-05-05 16:04 36.65906 3.75225 25452 ft 431 kts 89°
2026-05-05 16:04 36.66086 3.78990 26002 ft 433 kts 90°
2026-05-05 16:04 36.66263 3.82733 26495 ft 437 kts 89°
2026-05-05 16:05 36.66443 3.86552 26979 ft 440 kts 89°
2026-05-05 16:05 36.66683 3.91651 27612 ft 444 kts 89°
2026-05-05 16:05 36.66800 3.94190 27924 ft 446 kts 89°
2026-05-05 16:05 36.66978 3.98068 28380 ft 448 kts 89°
2026-05-05 16:06 36.67155 4.01909 28839 ft 450 kts 89°
2026-05-05 16:06 36.67334 4.05819 29275 ft 453 kts 89°
2026-05-05 16:06 36.67511 4.09713 29736 ft 454 kts 89°
2026-05-05 16:06 36.67689 4.13656 30302 ft 453 kts 88°
2026-05-05 16:07 36.67863 4.17560 30857 ft 452 kts 89°
2026-05-05 16:07 36.68037 4.21429 31385 ft 451 kts 89°
2026-05-05 16:07 36.68209 4.25322 31942 ft 449 kts 89°
2026-05-05 16:07 36.68379 4.29206 32460 ft 448 kts 89°
2026-05-05 16:08 36.68546 4.33053 32939 ft 448 kts 89°
2026-05-05 16:08 36.68714 4.36952 33414 ft 447 kts 89°
2026-05-05 16:08 36.68877 4.40801 33808 ft 447 kts 89°
2026-05-05 16:08 36.69039 4.44665 34135 ft 449 kts 89°
2026-05-05 16:09 36.69202 4.48559 34426 ft 451 kts 88°
2026-05-05 16:09 36.69363 4.52431 34677 ft 452 kts 88°
2026-05-05 16:09 36.69525 4.56328 34915 ft 454 kts 88°
2026-05-05 16:10 36.69849 4.64244 34962 ft 456 kts 88°
2026-05-05 16:10 36.70169 4.72114 34972 ft 456 kts 89°
2026-05-05 16:11 36.70479 4.79965 34966 ft 455 kts 89°
2026-05-05 16:12 36.71090 4.95662 34969 ft 456 kts 89°
2026-05-05 16:13 36.72327 5.15369 34962 ft 457 kts 83°
2026-05-05 16:13 36.73159 5.23148 34953 ft 456 kts 83°
2026-05-05 16:14 36.74796 5.38743 34992 ft 455 kts 83°
2026-05-05 16:15 36.76405 5.54347 34933 ft 455 kts 83°
2026-05-05 16:16 36.77987 5.69912 34973 ft 453 kts 84°
2026-05-05 16:17 36.79161 5.81597 34967 ft 454 kts 84°
2026-05-05 16:18 36.79922 5.93348 34960 ft 453 kts 89°
2026-05-05 16:19 36.80193 6.05103 34965 ft 453 kts 89°
2026-05-05 16:19 36.80467 6.16831 34958 ft 452 kts 89°
2026-05-05 16:20 36.80853 6.33750 34941 ft 453 kts 89°
2026-05-05 16:22 36.81246 6.52001 34970 ft 452 kts 89°
2026-05-05 16:23 36.81559 6.67659 34899 ft 453 kts 90°
2026-05-05 16:23 36.81635 6.71600 35061 ft 455 kts 90°
2026-05-05 16:23 36.81785 6.79491 34903 ft 454 kts 90°
2026-05-05 16:24 36.81856 6.83395 35004 ft 454 kts 90°
2026-05-05 16:24 36.81925 6.87314 34979 ft 454 kts 90°
2026-05-05 16:25 36.82128 6.99095 34981 ft 455 kts 90°
2026-05-05 16:25 36.82323 7.11105 34965 ft 473 kts 90°
2026-05-05 16:26 36.82451 7.19433 34958 ft 487 kts 90°
2026-05-05 16:26 36.82577 7.27971 34950 ft 499 kts 90°
2026-05-05 16:27 36.82699 7.36648 34958 ft 505 kts 89°
2026-05-05 16:27 36.82817 7.45455 34953 ft 507 kts 89°
2026-05-05 16:28 36.82929 7.54180 34956 ft 506 kts 90°
2026-05-05 16:28 36.83034 7.62935 34954 ft 505 kts 90°
2026-05-05 16:29 36.83136 7.71715 34943 ft 505 kts 90°
2026-05-05 16:29 36.83228 7.80462 34947 ft 505 kts 90°
2026-05-05 16:30 36.83287 7.90645 34947 ft 504 kts 91°
2026-05-05 16:30 36.83320 7.99367 34941 ft 503 kts 91°
2026-05-05 16:31 36.83347 8.06626 34937 ft 504 kts 91°
2026-05-05 16:31 36.83376 8.15403 34938 ft 505 kts 91°
2026-05-05 16:32 36.83400 8.24123 34934 ft 505 kts 90°
2026-05-05 16:32 36.83419 8.32827 34936 ft 504 kts 90°
2026-05-05 16:33 36.83431 8.41592 34943 ft 504 kts 90°
2026-05-05 16:33 36.83439 8.50295 34939 ft 505 kts 90°
2026-05-05 16:34 36.83441 8.59051 34946 ft 504 kts 90°
2026-05-05 16:34 36.83442 8.67707 34460 ft 496 kts 91°
2026-05-05 16:35 36.83467 8.71988 33908 ft 489 kts 91°
2026-05-05 16:35 36.83495 8.76163 33409 ft 481 kts 91°
2026-05-05 16:35 36.83523 8.80319 32947 ft 474 kts 91°
2026-05-05 16:35 36.83548 8.84388 32460 ft 468 kts 91°
2026-05-05 16:36 36.83572 8.88409 31863 ft 465 kts 91°
2026-05-05 16:36 36.83594 8.92440 31148 ft 464 kts 91°
2026-05-05 16:36 36.83614 8.96404 30397 ft 465 kts 91°
2026-05-05 16:36 36.83633 9.00445 29626 ft 465 kts 91°
2026-05-05 16:37 36.83648 9.04514 28853 ft 465 kts 91°
2026-05-05 16:37 36.83667 9.09781 28112 ft 459 kts 91°
2026-05-05 16:37 36.83677 9.12460 27727 ft 456 kts 91°
2026-05-05 16:37 36.83691 9.16343 27145 ft 452 kts 91°
2026-05-05 16:38 36.83702 9.20276 26550 ft 448 kts 91°
2026-05-05 16:38 36.83712 9.24144 25980 ft 444 kts 91°
2026-05-05 16:38 36.83722 9.27958 25419 ft 440 kts 91°
2026-05-05 16:38 36.83730 9.31772 24863 ft 436 kts 90°
2026-05-05 16:39 36.83738 9.35514 24309 ft 433 kts 91°
2026-05-05 16:39 36.83743 9.39255 23747 ft 429 kts 90°
2026-05-05 16:39 36.83764 9.44160 23022 ft 425 kts 90°
2026-05-05 16:39 36.83806 9.46602 22677 ft 423 kts 89°
2026-05-05 16:40 36.83883 9.50260 22145 ft 419 kts 89°
2026-05-05 16:40 36.83961 9.53904 21631 ft 416 kts 89°
2026-05-05 16:40 36.84035 9.57456 21034 ft 408 kts 89°
2026-05-05 16:40 36.84106 9.60979 20062 ft 402 kts 89°
2026-05-05 16:41 36.84172 9.64413 19010 ft 398 kts 89°
2026-05-05 16:41 36.84236 9.67813 17959 ft 392 kts 89°
2026-05-05 16:41 36.84299 9.71185 16931 ft 386 kts 89°
2026-05-05 16:41 36.84379 9.75614 15587 ft 377 kts 89°
2026-05-05 16:42 36.84417 9.77743 14947 ft 373 kts 89°
2026-05-05 16:42 36.84473 9.80942 13959 ft 366 kts 89°
2026-05-05 16:42 36.84527 9.84062 13000 ft 360 kts 89°
2026-05-05 16:42 36.84580 9.87143 12216 ft 347 kts 89°
2026-05-05 16:43 36.84630 9.90101 11656 ft 331 kts 89°
2026-05-05 16:43 36.84676 9.92892 11039 ft 319 kts 89°
2026-05-05 16:43 36.84719 9.95611 10387 ft 310 kts 89°
2026-05-05 16:43 36.84759 9.98230 9820 ft 299 kts 88°
2026-05-05 16:44 36.84799 10.00800 9217 ft 291 kts 88°
2026-05-05 16:44 36.84840 10.03285 8506 ft 288 kts 88°
2026-05-05 16:44 36.84878 10.05720 8105 ft 276 kts 88°
2026-05-05 16:44 36.84916 10.08104 7780 ft 271 kts 88°
2026-05-05 16:45 36.84951 10.10433 7469 ft 270 kts 88°
2026-05-05 16:45 36.84985 10.12787 7162 ft 269 kts 88°
2026-05-05 16:45 36.85018 10.15113 6862 ft 268 kts 88°
2026-05-05 16:45 36.85051 10.17422 6567 ft 266 kts 88°
2026-05-05 16:46 36.85092 10.19717 6267 ft 265 kts 85°
2026-05-05 16:46 36.85601 10.21881 5947 ft 262 kts 55°
2026-05-05 16:46 36.86910 10.23437 5645 ft 259 kts 26°
2026-05-05 16:46 36.88621 10.24108 5356 ft 256 kts
2026-05-05 16:47 36.90362 10.24511 5065 ft 256 kts
2026-05-05 16:47 36.92117 10.24920 4773 ft 256 kts
2026-05-05 16:47 36.93868 10.25343 4483 ft 256 kts 10°
2026-05-05 16:47 36.95625 10.25781 4195 ft 255 kts 11°
2026-05-05 16:48 36.97368 10.26221 3908 ft 255 kts 11°
2026-05-05 16:48 36.99678 10.26810 3532 ft 255 kts 11°
2026-05-05 16:48 37.00840 10.27107 3344 ft 254 kts 12°
2026-05-05 16:48 37.02573 10.27551 3068 ft 254 kts 12°
2026-05-05 16:49 37.04319 10.27999 2791 ft 254 kts 12°
2026-05-05 16:49 37.06027 10.28405 2625 ft 247 kts
2026-05-05 16:49 37.07681 10.28107 2589 ft 234 kts 332°
2026-05-05 16:49 37.08859 10.26849 2458 ft 221 kts 297°
2026-05-05 16:50 37.09227 10.25087 2378 ft 199 kts 262°
2026-05-05 16:50 37.08720 10.23608 2251 ft 177 kts 221°
2026-05-05 16:50 37.07682 10.23026 2122 ft 157 kts 178°
2026-05-05 16:50 37.06766 10.23508 2060 ft 140 kts 135°
2026-05-05 16:51 37.06164 10.24452 2038 ft 139 kts 130°
2026-05-05 16:51 37.05535 10.25377 1989 ft 137 kts 135°
2026-05-05 16:51 37.04802 10.26142 1983 ft 137 kts 150°
2026-05-05 16:51 37.03924 10.26608 2016 ft 138 kts 163°
2026-05-05 16:52 37.02969 10.26812 1992 ft 138 kts 173°
2026-05-05 16:52 37.02013 10.26831 1984 ft 137 kts 179°
2026-05-05 16:52 37.01053 10.26741 1985 ft 137 kts 182°
2026-05-05 16:52 37.00101 10.26586 1985 ft 137 kts 185°
2026-05-05 16:53 36.99160 10.26393 1991 ft 137 kts 186°
2026-05-05 16:53 36.98219 10.26199 1990 ft 137 kts 186°
2026-05-05 16:53 36.97287 10.25988 1986 ft 134 kts 187°
2026-05-05 16:53 36.96367 10.25758 1878 ft 133 kts 188°
2026-05-05 16:54 36.95469 10.25520 1713 ft 132 kts 188°
2026-05-05 16:54 36.94579 10.25278 1546 ft 131 kts 188°
2026-05-05 16:54 36.93679 10.25032 1376 ft 131 kts 187°
2026-05-05 16:54 36.92781 10.24788 1212 ft 132 kts 189°
2026-05-05 16:55 36.91896 10.24544 1041 ft 132 kts 187°
2026-05-05 16:55 36.90975 10.24296 882 ft 133 kts 190°
2026-05-05 16:55 36.90078 10.24050 697 ft 132 kts 188°
2026-05-05 16:55 36.89174 10.23803 522 ft 135 kts 188°
2026-05-05 16:56 36.88261 10.23554 337 ft 134 kts 188°
2026-05-05 16:56 36.87350 10.23307 160 ft 134 kts 188°
2026-05-05 16:56 36.86425 10.23056 36 ft 134 kts 189°
2026-05-05 16:56 36.85577 10.22827 16 ft 94 kts 191°
2026-05-05 16:57 36.85126 10.22709 15 ft 56 kts 193°
2026-05-05 16:57 36.84764 10.22605 12 ft 51 kts 191°
2026-05-05 16:57 36.84493 10.22406 11 ft 38 kts 249°
2026-05-05 16:57 36.84500 10.22169 15 ft 24 kts 282°
2026-05-05 16:58 36.84538 10.22085 17 ft 3 kts 286°
2026-05-05 16:58 36.84543 10.22062 18 ft 2 kts 287°
2026-05-05 16:58 36.84547 10.22047 18 ft 1 kts 287°
2026-05-05 16:58 36.84549 10.22039 19 ft 0 kts 289°
2026-05-05 16:59 36.84553 10.22026 19 ft 1 kts 292°
2026-05-05 16:59 36.84557 10.22015 19 ft 1 kts 291°
2026-05-05 16:59 36.84559 10.22009 20 ft 0 kts 291°
2026-05-05 16:59 36.84559 10.22007 20 ft 0 kts 291°
2026-05-05 17:00 36.84561 10.22003 20 ft 0 kts 291°
2026-05-05 17:00 36.84561 10.22002 20 ft 0 kts 291°